OSCAR 7 1 07530U 74089B 22145.91488147 -.00000027 00000-0 11827-3 0 9991 2 07530 101.9030 125.7149 0012673 85.0824 332.0746 12.53655124174647 OSCAR 11 (UoSAT 2) 1 14781U 84021B 22145.52098221 .00001300 00000-0 16346-3 0 9996 2 14781 97.6160 134.0022 0009546 45.4975 314.7018 14.83643170 36642 OSCAR 19 (LUSAT) 1 20442U 90005G 22145.47915113 .00000178 00000-0 81780-4 0 9995 2 20442 98.7918 109.9919 0010732 232.9628 127.0575 14.33058102689815 EYESAT A 1 22825U 93061C 22142.62889998 .00000170 00000-0 83617-4 0 9995 2 22825 98.8885 173.1183 0009408 123.1603 237.0482 14.30169275494469 ITAMSAT 1 22826U 93061D 22145.66595885 .00000151 00000-0 75584-4 0 9995 2 22826 98.8822 176.1009 0010142 103.6246 256.6066 14.30515414495156 RADIO ROSTO 1 23439U 94085A 22145.78093074 -.00000037 00000-0 15882-3 0 9997 2 23439 64.8160 182.2865 0167742 276.3552 81.8293 11.27572149128930 JAS 2 1 24278U 96046B 22145.28887785 .00000001 00000-0 38613-4 0 9991 2 24278 98.5173 172.1594 0349944 343.5996 15.4048 13.53114855272479 TECHSAT 1B 1 25397U 98043D 22145.87001799 .00000100 00000-0 63551-4 0 9990 2 25397 98.8162 96.2802 0001737 133.9921 226.1400 14.23753921240430 ISS (ZARYA) 1 25544U 98067A 22146.22125881 .00010617 00000-0 19583-3 0 9998 2 25544 51.6432 85.3792 0005097 158.3306 343.0517 15.49688356341774 PCSAT 1 26931U 01043C 22145.38284697 .00000106 00000-0 72021-4 0 9993 2 26931 67.0499 117.9456 0007900 267.0293 92.9905 14.30700696 78102 SAUDISAT 1C 1 27607U 02058C 22145.89647731 .00000884 00000-0 14218-3 0 9995 2 27607 64.5561 10.9284 0077148 298.8224 60.5148 14.76105609 45043 CUTE-1 1 27844U 03031E 22145.91736993 .00000354 00000-0 17841-3 0 9999 2 27844 98.6784 153.9443 0010235 160.3572 199.8002 14.22443109980661 CUBESAT XI 4 1 27848U 03031J 22145.59188911 .00000334 00000-0 17103-3 0 9997 2 27848 98.6828 154.1479 0009860 175.0646 185.0631 14.22001177980438 MOZHAYETS 4 1 27939U 03042A 22146.16751004 .00001153 00000-0 21285-3 0 9999 2 27939 98.1880 286.8980 0011620 279.2374 80.7513 14.67331999997776 CUBESAT XI 5 1 28895U 05043F 22145.90103989 .00001454 00000-0 28418-3 0 9997 2 28895 98.1030 277.6316 0016086 208.1389 151.8946 14.64309025884344 CUTE-1.7+APD II 1 32785U 08021C 22146.06085452 .00003058 00000-0 32623-3 0 9996 2 32785 97.6552 117.6219 0011326 313.8210 46.2070 14.89522607763222 DELFI C3 1 32789U 08021G 22146.00492567 .00017405 00000-0 97739-3 0 9993 2 32789 97.3408 173.1214 0011664 52.0155 308.2128 15.13327790768639 SEEDS 1 32791U 08021J 22145.71705201 .00003324 00000-0 32828-3 0 9998 2 32791 97.6094 122.8087 0011001 265.4137 94.5826 14.92564750763809 YUBELEINY 1 32953U 08025A 22146.08500632 .00000021 00000-0 80971-4 0 9998 2 32953 82.5051 197.8398 0018102 311.6846 48.2685 12.43110125635558 PRISM (HITOMI) 1 33493U 09002B 22145.45987611 .00005942 00000-0 48656-3 0 9990 2 33493 98.2311 130.7271 0012369 237.5894 122.4131 14.99660779725543 KKS-1 (KISEKI) 1 33499U 09002H 22145.80352793 .00001129 00000-0 17177-3 0 9999 2 33499 98.2210 27.4707 0009826 34.9374 325.2478 14.75986249717331 SWISSCUBE 1 35932U 09051B 22145.57397635 .00001018 00000-0 23802-3 0 9994 2 35932 98.5711 0.8712 0008651 113.7239 246.4867 14.56837635672807 BEESAT 1 35933U 09051C 22146.14744019 .00000736 00000-0 17506-3 0 9991 2 35933 98.5653 3.1054 0006743 121.5496 238.6361 14.56857640673003 ITUPSAT 1 1 35935U 09051E 22145.53274210 .00000782 00000-0 18888-3 0 9991 2 35935 98.5757 2.5358 0008912 127.9635 232.2369 14.55968193672579 XIWANG-1 (HOPE-1) 1 36122U 09072B 22145.54624977 -.00000026 00000-0 45343-4 0 9992 2 36122 100.1808 117.7489 0007975 38.5792 321.5891 13.16369111597904 TISAT 1 1 36799U 10035E 22145.52908351 .00004296 00000-0 42083-3 0 9991 2 36799 98.1856 355.0710 0012132 164.7079 195.4508 14.92790631644342 JUGNU 1 37839U 11058B 22145.52102867 .00000477 00000-0 11148-3 0 9996 2 37839 19.9621 314.5643 0018883 264.1514 136.4548 14.12782728549008 SRMSAT 1 37841U 11058D 22146.06770882 .00000447 00000-0 10047-3 0 9991 2 37841 19.9735 30.2287 0011945 98.5093 36.3585 14.10752399548294 M-CUBED/EXP-1 PRIME 1 37855U 11061F 22145.87495500 .00018858 00000-0 82703-3 0 9992 2 37855 101.7056 253.0264 0154965 130.2085 231.2810 15.11864323578293 HORYU 2 1 38340U 12025D 22145.77927864 .00001993 00000-0 29293-3 0 9992 2 38340 98.1943 223.8362 0010112 303.6262 56.3982 14.76589569539300 STRAND 1 1 39090U 13009E 22145.01517121 .00000195 00000-0 83039-4 0 9998 2 39090 98.4060 343.7629 0008836 349.1890 10.9105 14.35290165484034 SOMP 1 39134U 13015E 22145.39773192 .00017080 00000-0 61938-3 0 9991 2 39134 64.8605 137.5268 0034355 284.8841 74.8487 15.27921292503330 BEESAT 3 1 39135U 13015F 22145.41876195 .00012053 00000-0 50215-3 0 9993 2 39135 64.8651 172.9651 0036925 292.2015 67.5198 15.23428082502604 BEESAT 2 1 39136U 13015G 22145.51801583 .00010776 00000-0 46957-3 0 9992 2 39136 64.8744 180.6562 0014888 297.2006 62.7605 15.22496585502426 CUBEBUG 1 1 39153U 13018D 22146.08967342 .00002023 00000-0 26399-3 0 9997 2 39153 98.0095 256.1712 0015728 326.3470 33.6742 14.81577485490521 ZACUBE 1 39417U 13066B 22145.88846897 .00002735 00000-0 33860-3 0 9992 2 39417 97.6342 118.4088 0059335 117.8144 242.9101 14.82261323459782 TRITON 1 1 39427U 13066M 22145.78798972 .00003167 00000-0 50046-3 0 9997 2 39427 97.8116 82.5700 0111431 338.0078 21.6365 14.68914271455450 GOMX 1 1 39430U 13066Q 22146.11506959 .00002060 00000-0 37352-3 0 9997 2 39430 97.8108 54.5895 0150647 115.0668 246.6258 14.60129699453035 HUMSAT D 1 39433U 13066T 22145.91816152 .00005765 00000-0 53813-3 0 9991 2 39433 97.4505 158.4175 0027860 317.3087 42.5969 14.94257981461856 CUBEBUG 2 1 39440U 13066AA 22145.82782465 .00001790 00000-0 24899-3 0 9994 2 39440 97.7238 104.3399 0078051 203.8214 155.9377 14.76950041456940 FUNCUBE 1 1 39444U 13066AE 22145.85407169 .00003232 00000-0 38916-3 0 9994 2 39444 97.6218 120.7783 0058468 106.5937 254.1709 14.83325364458766 UWE-3 1 39446U 13066AG 22145.88882842 .00002076 00000-0 27344-3 0 9992 2 39446 97.6833 110.9319 0069230 161.5877 198.7865 14.79497363457714 SPROUT 1 39770U 14029E 22146.03109679 .00009582 00000-0 98100-3 0 9997 2 39770 97.9373 262.8363 0009070 154.8764 205.2870 14.90688918434321 UNISAT 6 1 40012U 14033C 22146.13125705 .00001745 00000-0 26113-3 0 9990 2 40012 97.6623 335.2895 0056369 230.4082 129.2143 14.74849773426698 DUCHIFAT 1 1 40021U 14033M 22145.81833496 .00005447 00000-0 53206-3 0 9993 2 40021 98.0102 95.6136 0014302 112.1000 248.1739 14.92737256431327 QB50P1 1 40025U 14033R 22145.76695504 .00003961 00000-0 41181-3 0 9995 2 40025 97.9592 82.9922 0013467 127.1496 233.0953 14.90406083430385 CHUBUSAT 1 1 40300U 14070C 22146.17879897 .00008546 00000-0 33983-3 0 9992 2 40300 97.1916 201.9068 0017232 234.4403 191.3145 15.25386414419257 NUDT-PHONESAT 1 40900U 15049B 22146.16037791 .00039740 00000-0 11674-2 0 9995 2 40900 97.4013 164.0357 0009634 22.3981 43.3615 15.34975790371195 ZDPS 2A 1 40901U 15049C 22146.24826595 .00018074 00000-0 75447-3 0 9999 2 40901 97.4588 155.1604 0013715 69.2321 348.4854 15.23623431370072 ZDPS 2B 1 40902U 15049D 22146.21213056 .00018584 00000-0 77139-3 0 9995 2 40902 97.4679 152.7664 0014047 65.7869 358.9900 15.23804037370048 XW-2A 1 40903U 15049E 22146.16873721 .00029846 00000-0 48431-3 0 9997 2 40903 97.1801 204.6809 0009869 193.6763 250.6560 15.52645340375802 KAITUO 1A 1 40904U 15049F 22146.21465525 .00006637 00000-0 33104-3 0 9997 2 40904 97.4950 148.9469 0015911 87.9739 333.6976 15.17750886369490 OBJECT G 1 40905U 15049G 22146.20414559 .00005628 00000-0 29236-3 0 9998 2 40905 97.5144 146.1106 0016977 90.1602 331.6658 15.16375499369243 XW-2C 1 40906U 15049H 22146.19475903 .00009086 00000-0 43746-3 0 9991 2 40906 97.4931 149.7904 0015920 78.5263 346.9536 15.18875570369546 XW-2D 1 40907U 15049J 22146.22613748 .00010298 00000-0 48671-3 0 9996 2 40907 97.4918 149.7822 0015001 74.2491 345.3695 15.19494361369597 LILACSAT 2 1 40908U 15049K 22146.23710738 .00005124 00000-0 27178-3 0 9996 2 40908 97.5160 147.0424 0017092 93.5387 323.5336 15.15680226369129 XW-2F 1 40910U 15049M 22146.24707236 .00015651 00000-0 67275-3 0 9997 2 40910 97.4726 153.4103 0014787 59.0364 357.8861 15.22648833369808 XW-2B 1 40911U 15049N 22146.24886954 .00010222 00000-0 48466-3 0 9993 2 40911 97.4901 150.4139 0014982 76.1608 339.3042 15.19385496369487 KAITUO 1B 1 40912U 15049P 22146.03356757 .00017885 00000-0 70230-3 0 9990 2 40912 97.4380 157.5496 0013578 29.7678 29.9003 15.25682607370330 TIANWANG 1A (TW-1A) 1 40928U 15051D 22146.20800932 .00054044 00000-0 71316-3 0 9992 2 40928 97.0406 169.0798 0010188 108.2714 316.2943 15.58166987374774 LAPAN A2 1 40931U 15052B 22146.09704928 .00001234 00000-0 82391-4 0 9991 2 40931 5.9996 328.5628 0012804 216.8460 143.0778 14.76806774360035 LQSAT 1 40958U 15057A 22146.12822172 .00000812 00000-0 13239-3 0 9996 2 40958 97.7512 193.3397 0019025 36.5492 323.7022 14.73353262356694 CHUBUSAT 2 1 41338U 16012B 22145.46212667 .00002881 00000-0 21181-3 0 9992 2 41338 31.0015 170.2800 0013449 284.0650 75.8491 15.01306284344022 CHUBUSAT 3 1 41339U 16012C 22146.12100888 .00003072 00000-0 22573-3 0 9997 2 41339 31.0110 163.0293 0013417 297.6521 62.2750 15.01396888344125 OUFTI-1 1 41458U 16025C 22145.41203339 .00010950 00000-0 46895-3 0 9995 2 41458 98.1844 310.2648 0142771 343.7998 15.8691 15.14135071334094 E-STAR-2 1 41459U 16025D 22146.20537776 .00012353 00000-0 54007-3 0 9992 2 41459 98.1836 309.7192 0145386 345.2842 14.4053 15.13128853334134 AAUSAT 4 1 41460U 16025E 22146.07699274 -.00006821 00000-0 -26212-3 0 9993 2 41460 98.1789 315.5849 0126244 322.4312 36.7341 15.18718831334546 NUSAT 1 1 41557U 16033B 22146.08423789 .00019745 00000-0 59602-3 0 9992 2 41557 97.3861 243.7523 0012385 99.0098 23.4682 15.34230490333957 BEESAT 4 1 41619U 16040W 22145.62944660 .00019904 00000-0 67436-3 0 9995 2 41619 97.2183 196.8752 0009783 187.5997 172.5098 15.30553491317238 PRATHAM 1 41783U 16059A 22146.06782325 .00000690 00000-0 14161-3 0 9993 2 41783 97.9143 188.5176 0032153 243.2686 116.5224 14.63338762302356 ALSAT 1N 1 41789U 16059G 22146.07947580 .00000944 00000-0 18540-3 0 9993 2 41789 97.9175 193.0456 0027130 225.7537 134.1455 14.64666724302599 NAYIF 1 1 42017U 17008BX 22145.73815847 .00022937 00000-0 69832-3 0 9991 2 42017 97.2703 212.1906 0003786 339.6952 20.4140 15.33995894293591 MAX VALIER SAT 1 42778U 17036P 22146.10636986 .00011790 00000-0 45087-3 0 9994 2 42778 97.2072 187.9777 0012169 54.3147 305.9223 15.26668909273497